Weather in Umantsevo

Russia / Republic of Kalmykia     47°44′01″N   44°16′19″E
temp.,
°C
wind,
m/s
gust,
m/s
humid.,
%
clouds,
%
prec.,
mm/h
press.,
hPa
HPBL,
m
10 may, mon
mon1000:00+7wnw81190100 9.3 1015887
03:00+7wnw71088100 10.3 1015758
06:00+7wnw81286100 0.2 1014964
09:00+7wnw91179100 0.3 1014985
12:00+8w91178100 0.1 10131047
15:00+7wsw81084100 0.3 10131072
18:00+6sw6886100 0.2 10131013
21:00+7s5891100 0.7 10131047
11 may, tue
tue1100:00+7s71091100 1.6 10131103
03:00+6s91390100 3.9 10141147
06:00+6sse101592100 1.9 10161104
09:00+8sse101782100 3.5 10181215
12:00+13s81357100 0.4 10201723
15:00+14ese61050100 0.4 10201863
18:00+13e5956100 0.0 1020302
21:00+11s5872100 0.1 1021216
12 may, wed
wed1200:00+9n3479100 0.0 102056
03:00+9nne4677100 0.0 1018112
06:00+10ene477998 0.0 1019212
09:00+15e555571 0.0 1019586
12:00+19ese44425 0.0 10181494
15:00+20ese444124 0.0 10181595
18:00+19e34500 0.0 1018236
21:00+15nne33580 0.0 101713
13 may, thu
thu1300:00+15nne3363100 0.0 101618
03:00+14ne227199 0.0 101613
06:00+15ne33723 0.0 101671
09:00+21ene33570 0.0 1016630
12:00+24e44523 0.0 10151383
15:00+25ese44460 0.0 10151438
18:00+24se34525 0.0 1015152
21:00+20e335836 0.0 101615
14 may, fri
fri1400:00+18e456013 0.0 101656
03:00+17ese457591 0.0 101657
06:00+17ese49795 0.0 1016262
09:00+23se695314 0.0 1016540
12:00+28se810370 0.0 10161123
15:00+30se711300 0.0 10152031
18:00+27se814370 0.0 1014473
21:00+22se716405 0.0 1015395